Location: Drocourt
(49.0571°N, 1.7669°E)
Time: 09:46:03
(UTC+00:00)

ATLAS 2AS CENTAUR R/B - Pass Details

Date: 09 February 2023
Orbit: 986 x 1226 km, 63.7° (Epoch: 31 January)

Event Time Altitude Azimuth Distance (km) Brightness Sun altitude
Rises 17:34:30 0° 316° (NW) 3,957 6.1 -5.8°
Reaches altitude 10° 17:37:26 10° 308° (NW) 2,957 5.6 -6.2°
Maximum altitude 17:43:44 38° 244° (WSW) 1,557 4.4 -7.2°
Drops below altitude 10° 17:49:42 10° 179° (S) 2,798 5.1 -8.2°
Sets 17:52:25 0° 171° (S) 3,721 5.6 -8.6°
